FORESAIL 1 (52766 NORAD) Tracking and Keplerian Element Data
This shows tracking and keplerian element data for the satellite.
Feedback or suggestion? Click here.
Element | Value |
Catalog | 52766 |
Name | FORESAIL 1 |
Epoch Orbit | 712 |
Epoch Day | 192.82993623 |
Epoch Year | 2022 |
RAAN | 307.244 |
Inclination | 97.5245 |
Eccentricity | 0.0015229 |
Argument of Perigee | 72.6183 |
Mean Anonmoly | 287.6712 |
Mean Motion | 15.134186 |
Decay Rate | 3.371E-05 |
L1 | 1 52766U 22057AL 22192.82993623 .00003371 00000+0 19191-3 0 9997 |
L2 | 2 52766 97.5245 307.2440 0015229 72.6183 287.6712 15.13418600 7128 |
Live tracking and technical data element details for FORESAIL 1 (NORAD 52766). FORESAIL 1 can be tracked NOW for your location showing map with azimuth and elevation plus other details from your city location.
Track the satellite on the map from your city or location and see movement details for azimuth, elevation, latitude, longitude, range, height, and movement on the map or in text.
IsCatalogInMostPopularTable: catalog: 52766, numindb: 6
Update: records affected: 1
GetName: 52766 FORESAIL 1
Hit Count: updated at: Sun, 14 Aug 2022 00:20:27 GMT